SILO ALERT LOG


Silo ID Alert Type Alert Message Silo Type Points Depth (mm) Strength Temperature (°C) Humidity (%) Height (mm) Volume (㎥) Weight (t) Flag Time
WJWJR01 Humidity 습도센서 측정값이 80% 초과 83 4616 1353 20 84.8 3023 341.97 216.194 0 2026-06-07 06:26:41.000
WJWJR05 Humidity 습도센서 측정값이 80% 초과 44 5599 2886 22.6 81.7 2130 240.983 152.35 0 2026-06-07 06:25:50.000
WJWJR01 Humidity 습도센서 측정값이 80% 초과 82 4654 1329 20.4 84.2 2985 337.674 213.478 0 2026-06-07 05:26:44.000
WJWJR05 Humidity 습도센서 측정값이 80% 초과 82 5341 2903 23 81.2 2388 270.098 170.756 0 2026-06-07 05:26:01.000
WJWJR01 Humidity 습도센서 측정값이 80% 초과 80 4679 1363 20.9 83.6 2960 334.862 211.7 0 2026-06-07 04:26:47.000
WJWJR05 Humidity 습도센서 측정값이 80% 초과 82 5363 3014 23.4 80.8 2366 267.686 169.231 0 2026-06-07 04:25:56.000
WJWJR01 Humidity 습도센서 측정값이 80% 초과 83 4652 1357 21.3 83.2 2987 337.887 213.612 0 2026-06-07 03:26:47.000
WJWJR05 Humidity 습도센서 측정값이 80% 초과 80 5382 2910 23.6 80.3 2347 265.445 167.815 0 2026-06-07 03:25:54.000
WJWJR01 Humidity 습도센서 측정값이 80% 초과 81 4679 1346 21.7 82.9 2960 334.795 211.657 0 2026-06-07 02:26:44.000
WJWJR01 Humidity 습도센서 측정값이 80% 초과 82 4663 1342 22.1 82.4 2976 336.674 212.845 0 2026-06-07 01:26:52.000
WJWJR01 Humidity 습도센서 측정값이 80% 초과 82 4647 1355 22.4 81.8 2992 338.448 213.967 0 2026-06-07 00:26:40.000
WJWJR01 Humidity 습도센서 측정값이 80% 초과 82 4635 1307 23 80.7 3004 339.849 214.853 0 2026-06-06 23:26:41.000
WJWJR05 Humidity 습도센서 측정값이 80% 초과 83 5210 2870 22.7 82.2 2519 284.946 180.143 0 2026-06-06 10:26:00.000
WJWJR01 Humidity 습도센서 측정값이 80% 초과 83 4673 1432 21 81.7 2966 335.559 212.14 0 2026-06-06 09:26:46.000
WJWJR05 Humidity 습도센서 측정값이 80% 초과 82 5193 2900 21.5 83 2536 286.85 181.347 0 2026-06-06 09:25:55.000
WJWJR01 Humidity 습도센서 측정값이 80% 초과 81 4679 1378 19.4 85.3 2960 334.831 211.68 0 2026-06-06 08:26:44.000
WJWJR05 Humidity 습도센서 측정값이 80% 초과 81 5164 2887 20.9 83.4 2565 290.111 183.408 0 2026-06-06 08:25:57.000
WJWJR01 Humidity 습도센서 측정값이 80% 초과 84 4669 1389 18.4 87.9 2970 335.957 212.392 0 2026-06-06 07:26:45.000
WJWJR05 Humidity 습도센서 측정값이 80% 초과 80 5200 2835 20.7 83.5 2529 286.116 180.883 0 2026-06-06 07:25:55.000
WJWJR01 Humidity 습도센서 측정값이 80% 초과 83 4673 1337 18.1 88.5 2966 335.543 212.13 0 2026-06-06 06:26:44.000

[첫 페이지] [49] [50] [51] [52] 53 [54] [55] [56] [57] [마지막 페이지]